Temperature
14 15 15 15 14 15 15 15 15 15 15 15 15 15 15 15 15 15 15 15 15 15 15 15 15 15 15 15 15 15 15 15 15 15 15 15 15 14 14 14 14 14 14
14 14 14 14 14 14 14 14 15 15 15 15 14 14 14 14 14 14 15 15 14 14 15 15 15 14 15 15 15 15 15 15 14 14 14 14 14 14 14 14 14 14 14
14 14 14 14 14 14 14 14 14 14 14 14 14 14 14 14 14 14 14 14 14 14 15 15 15 14 14 15 15 15 14 14 14 14 14 14 14 14 14 14 14 14 14
14 14 14 14 14 14 14 14 14 14 14 14 14 14 14 14 14 14 14 14 14 14 14 14 14 14 14 14 14 14 14 14 14 13 13 13 13 13 14 14 14 13 13
13 13 13 14 14 14 14 14 14 14 14 14 14 14 14 14 14 14 14 14 14 14 14 14 14 14 14 14 14 14 14 13 13 13 13 13 13 13 13 13 13 13 13
13 13 13 13 13 13 13 13 13 14 13 14 14 14 14 14 14 14 14 14 14 14 14 14 14 14 14 14 14 14 13 13 13 13 13 13 13 13 13 13 13 13 13
13 13 13 13 13 13 13 13 13 13 13 14 14 14 14 14 14 14 14 14 14 14 14 14 14 14 14 14 14 13 13 13 13 13 13 13 13 13 13 13 13 13 12
12 12 13 13 13 13 13 13 13 13 13 13 13 13 13 13 14 13 14 14 14 14 14 14 14 14 14 14 14 13 13 13 13 13 13 13 13 13 13 13 13 13 12
12 12 12 12 12 13 13 13 13 13 13 13 13 13 13 13 13 13 13 13 13 13 13 13 13 14 13 13 13 13 13 13 13 13 13 13 13 12 12 13 13 13 12
12 12 12 12 12 12 12 12 12 13 13 13 13 13 13 13 13 13 13 13 13 13 13 13 13 13 13 13 13 13 13 13 12 12 12 12 12 12 12 12 12 12 12
11 11 11 11 11 12 12 12 12 12 12 12 12 12 12 12 12 12 12 12 12 12 13 13 12 12 12 12 12 12 12 12 12 12 12 12 12 12 12 12 12 12 12
11 11 11 11 11 11 11 12 12 12 12 12 12 12 12 12 12 12 12 12 12 12 12 12 12 12 12 12 12 12 12 12 12 12 12 12 12 12 12 12 12 12 12
11 11 11 11 11 11 11 11 11 11 11 11 11 11 11 11 11 11 11 11 11 12 12 12 11 11 11 11 11 11 11 11 12 11 11 11 12 11 11 11 11 12 12
11 10 10 11 11 11 11 11 11 11 11 11 11 11 11 11 11 11 11 11 11 11 11 11 11 11 11 11 11 11 11 11 11 11 11 11 11 11 11 11 11 11 11
10 10 10 10 10 10 10 10 10 10 10 10 10 10 10 11 10 10 10 10 10 10 11 11 10 10 10 10 10 10 10 10 11 11 11 11 11 11 11 11 11 11 11
10 10 10 10 10 10 10 10 10 10 10 10 10 10 10 10 10 10 10 10 10 10 10 10 10 10 10 10 10 10 10 10 10 10 10 10 10 10 10 10 10 10 10
10 9 9 9 9 9 10 9 9 9 9 9 9 10 9 9 10 9 9 9 9 10 10 9 9 9 9 10 10 10 10 10 10 10 10 10 10 10 10 10 10 10 10
9 9 9 9 9 9 9 9 9 9 9 9 9 9 9 9 9 9 9 9 9 9 9 9 9 9 9 9 9 9 9 9 9 10 10 10 10 10 10 10 10 10 10
8 8 9 8 8 8 8 8 8 8 8 8 8 8 8 8 9 9 9 8 9 9 8 8 8 8 8 9 9 9 9 9 9 9 9 9 9 9 9 9 9 9 9
8 8 8 8 8 8 8 8 8 8 8 8 8 8 8 8 8 8 8 8 8 8 8 8 8 8 8 8 8 8 8 8 8 8 8 8 8 9 9 9 9 8 8
7 7 7 7 7 7 7 7 7 7 7 7 7 7 7 7 8 8 8 8 8 8 8 7 7 7 7 7 7 7 8 8 8 8 8 8 8 8 8 8 8 8 8
7 7 7 7 7 7 7 7 6 6 6 7 7 7 7 7 7 7 7 7 7 7 7 7 7 7 7 6 6 6 6 7 7 7 7 7 7 7 7 7 7 7 7
6 6 6 6 6 6 6 6 6 6 6 6 6 6 6 6 6 6 6 6 6 6 6 6 6 6 6 6 5 5 5 5 6 6 7 7 7 7 7 7 7 7 6
6 6 6 6 6 6 6 5 5 5 5 5 5 5 5 5 6 6 6 6 6 6 6 6 6 6 5 5 5 5 5 5 5 5 5 6 6 6 6 6 6 6 6
5 5 5 5 5 5 5 5 5 4 4 4 4 4 5 5 5 5 5 5 5 5 5 5 5 5 5 5 4 4 4 4 4 4 4 5 5 5 5 6 6 6 5
4 5 5 5 5 4 4 4 4 4 4 4 4 4 4 4 4 4 5 5 5 5 5 5 4 4 4 4 4 4 4 4 4 4 4 4 4 4 5 5 5 5 5
Wind_Speed
6 8 8 8 8 8 8 8 8 8 8 8 8 9 9 8 8 8 9 9 9 9 9 9 9 9 9 10 10 10 9 9 9 9 9 8 8 8 8 8 9 9 10
8 10 9 9 8 8 8 8 8 7 7 7 7 8 8 7 7 7 8 8 8 8 8 8 8 9 9 9 8 8 8 8 7 7 7 7 7 7 7 8 8 8 9
8 10 10 9 8 8 8 8 8 7 7 7 7 7 6 6 6 6 7 7 7 8 7 7 7 8 8 8 7 7 6 6 5 5 4 5 5 6 7 7 7 7 7
8 10 9 9 8 8 7 7 7 7 6 6 6 6 6 6 6 6 6 6 6 6 7 7 7 7 7 6 6 6 4 3 3 3 3 4 5 5 5 5 5 5 5
8 10 9 9 8 8 7 6 6 6 6 6 5 5 5 5 4 5 5 5 5 5 6 6 6 6 5 5 5 5 4 3 2 2 2 5 6 5 4 4 4 3 3
7 10 9 8 7 7 7 7 6 6 5 5 5 4 4 4 4 4 4 4 5 4 5 5 5 5 4 4 3 3 3 3 2 1 2 4 5 4 3 2 2 2 1
7 9 9 8 7 7 6 6 6 5 5 5 5 4 3 3 3 4 4 4 4 4 3 3 3 3 3 2 2 2 2 3 1 1 2 3 5 4 3 2 1 1 0
7 7 8 7 6 6 5 5 5 4 4 4 4 4 4 2 2 3 3 3 3 3 3 2 2 1 1 1 0 1 2 3 1 2 1 2 4 3 1 1 0 0 1
7 6 7 6 5 5 5 4 4 3 3 3 3 3 3 3 1 2 2 2 2 2 2 1 1 0 0 1 1 2 3 3 2 2 1 2 3 2 1 0 1 2 2
5 5 4 5 4 4 4 4 3 2 2 2 2 2 2 2 1 1 1 2 2 1 1 1 1 1 1 2 3 3 3 3 2 3 0 2 2 1 2 2 2 3 3
4 3 3 3 3 3 3 3 3 2 1 1 1 1 1 1 1 1 1 2 2 1 0 1 1 1 2 3 4 4 4 3 2 2 1 2 2 2 2 3 4 4 4
3 2 3 2 2 2 1 2 2 2 1 0 1 1 1 1 1 2 1 2 2 1 1 1 1 1 2 3 4 4 3 3 2 2 2 3 3 3 4 5 5 5 6
2 2 2 2 2 1 1 0 0 1 1 0 1 1 1 1 2 1 1 0 1 2 1 1 2 2 2 2 2 2 3 3 2 2 3 4 5 5 6 7 7 7 7
2 2 2 2 1 1 1 0 0 1 0 0 0 1 2 1 1 1 1 1 1 1 1 2 2 2 2 3 3 2 3 3 2 2 3 5 6 7 7 8 9 9 9
2 3 2 2 1 1 0 0 0 0 0 1 0 0 1 1 1 1 1 1 2 1 1 2 2 1 2 2 3 3 3 3 4 3 4 6 7 8 8 9 9 10 10
2 2 2 1 1 1 1 0 0 0 1 0 1 1 1 1 1 1 2 1 1 2 2 2 2 2 2 2 3 3 3 4 4 4 5 6 8 9 9 10 10 11 11
2 2 1 1 1 1 1 0 1 0 1 1 1 1 1 1 1 1 1 1 1 2 3 2 2 2 2 2 3 4 4 4 4 4 5 5 6 8 9 10 11 11 12
2 2 2 0 0 0 1 1 1 1 1 1 1 1 1 1 1 1 1 1 1 2 2 2 2 1 2 2 3 3 4 4 5 5 5 6 6 6 7 9 10 11 12
2 2 2 1 0 0 0 1 1 0 0 0 1 1 1 1 1 1 1 1 1 1 2 2 2 1 2 2 3 4 4 4 5 5 5 5 5 5 5 7 10 11 12
2 2 1 1 1 0 0 0 1 0 0 1 0 1 1 1 1 1 1 1 1 1 1 1 2 2 2 2 4 5 5 5 5 4 5 4 4 5 5 6 7 8 11
2 2 1 1 1 1 0 0 0 1 1 1 1 1 1 1 1 1 1 1 1 1 2 2 2 2 2 2 3 4 5 5 5 4 4 4 4 4 5 5 6 6 7
1 1 1 1 0 0 0 1 1 1 1 2 1 1 1 1 2 2 1 1 1 1 2 2 1 1 2 1 1 2 3 3 3 4 3 3 4 3 4 5 6 6 5
1 1 1 1 0 1 1 0 1 1 1 1 1 1 2 2 2 2 2 2 2 2 2 2 2 2 2 2 2 1 1 3 3 3 4 3 3 3 3 4 5 5 5
0 0 1 1 1 1 1 0 1 1 2 2 2 2 2 3 2 2 2 3 2 2 2 3 2 2 2 3 3 3 3 2 2 3 3 2 3 3 3 4 4 5 5
1 0 0 1 1 0 0 1 1 2 2 2 2 2 2 2 2 2 3 3 3 2 2 2 3 3 3 3 3 3 4 4 4 4 5 4 4 3 3 3 3 4 5
1 0 0 1 1 1 1 1 2 2 2 2 2 2 2 2 2 3 3 3 3 2 3 3 3 4 3 3 3 3 3 3 3 3 5 5 5 4 4 3 3 3 4
Wind_Direction
99 98 98 90 81 76 79 81 84 87 87 85 82 80 82 83 82 79 80 78 76 78 79 76 73 77 78 81 78 75 76 81 87 86 85 82 78 75 71 70 78 76 77
106 105 100 92 85 79 77 78 79 85 87 87 84 82 82 83 84 82 84 81 76 74 76 75 75 75 77 79 78 76 77 81 87 90 85 80 81 79 72 71 78 79 75
99 107 102 93 89 83 78 78 76 79 84 85 83 84 81 81 84 84 84 81 77 72 70 72 76 76 77 77 78 80 79 79 80 87 86 99 96 89 83 78 81 79 76
99 100 100 96 92 87 81 77 79 74 77 83 83 82 82 79 80 84 84 81 76 72 68 66 74 76 76 78 77 76 76 69 58 61 75 97 97 92 90 84 83 81 75
96 96 98 100 94 89 84 81 80 80 73 75 83 81 79 78 77 83 83 83 78 74 70 66 70 73 74 78 82 74 57 33 39 21 52 84 92 93 93 90 83 81 72
97 97 101 101 96 92 84 79 78 81 75 69 76 87 83 78 78 80 84 82 81 79 75 69 73 73 73 81 83 78 37 8 18 350 39 79 95 97 93 103 110 93 70
95 96 106 102 99 94 88 84 80 81 77 70 66 64 77 84 83 80 87 86 84 81 80 72 74 77 74 81 81 46 9 2 12 4 55 78 101 104 91 93 95 121 256
98 98 109 108 103 99 94 90 84 82 82 73 64 58 52 67 85 87 92 93 90 87 77 72 72 76 73 89 74 329 325 334 346 344 61 100 117 126 122 114 66 273 270
98 101 106 117 112 106 97 91 87 90 88 77 65 57 51 43 73 98 96 108 103 92 80 67 50 37 321 265 271 288 305 307 325 313 311 104 122 149 157 276 292 288 275
96 97 107 114 115 116 114 110 97 99 97 84 69 55 43 33 37 75 101 137 129 119 95 40 298 275 277 270 266 272 277 279 269 267 169 118 141 187 241 260 271 280 272
105 104 105 105 100 105 131 131 131 123 119 117 68 48 33 4 5 310 219 186 175 175 198 243 273 260 265 260 262 266 259 243 247 255 183 182 196 243 269 270 272 274 272
138 124 101 102 95 78 93 136 158 155 138 169 88 53 329 333 314 315 248 206 190 203 226 235 246 251 256 247 255 257 254 242 234 224 200 198 215 250 269 275 279 278 275
144 121 105 94 94 85 52 90 123 116 130 343 63 350 341 11 355 5 9 251 210 199 210 244 243 250 257 263 262 248 252 254 234 223 210 213 223 247 265 272 274 276 278
141 144 123 112 112 90 54 16 90 99 86 343 97 347 14 9 338 343 318 304 241 227 235 257 263 259 267 266 269 260 256 257 239 225 222 221 229 243 257 266 269 271 272
135 129 132 137 134 122 90 360 11 42 63 6 4 288 28 352 293 310 309 303 283 278 229 262 274 269 276 274 278 277 261 254 245 232 233 229 233 242 252 262 269 272 272
114 115 122 131 131 122 114 165 167 38 356 5 34 343 13 7 322 302 303 302 308 325 289 263 259 262 268 274 280 282 276 267 254 237 233 235 237 242 251 259 266 271 273
99 87 88 162 114 100 93 345 26 60 7 13 15 277 305 354 348 310 293 282 304 318 305 292 280 283 276 286 286 284 280 272 269 249 242 236 238 241 249 258 264 270 272
98 92 78 5 111 106 61 330 2 65 48 2 346 297 312 330 335 320 288 275 305 312 295 277 258 277 286 291 292 287 285 278 272 258 248 238 233 239 244 254 264 269 275
110 104 93 67 55 101 34 336 342 34 180 292 316 334 324 305 301 310 277 267 274 275 281 284 294 287 290 295 289 282 276 273 271 266 253 243 232 227 229 248 258 264 271
91 96 104 67 22 37 167 316 336 330 294 332 317 318 279 277 290 315 273 259 269 244 259 278 287 291 281 283 293 289 281 272 269 258 254 249 235 236 237 241 245 256 261
98 94 107 95 8 24 91 270 293 301 312 305 299 297 289 296 304 304 266 234 247 236 252 264 283 281 285 302 306 301 289 265 254 254 254 248 244 243 240 241 241 245 252
107 86 61 23 326 143 129 261 271 263 261 255 279 291 266 273 279 279 256 225 226 234 250 258 271 277 287 301 287 307 309 305 284 272 257 243 243 248 252 258 250 245 240
76 66 26 343 302 137 92 263 312 314 285 303 294 284 266 254 255 257 256 238 227 219 228 235 229 244 267 280 266 246 269 269 304 278 264 260 256 254 254 259 255 249 250
61 54 21 316 305 123 100 190 253 262 273 271 273 269 272 260 244 245 258 245 229 221 226 240 247 244 238 261 274 262 260 268 277 299 297 296 294 290 286 286 273 267 256
38 51 321 312 317 95 160 226 246 263 262 274 287 281 274 272 256 245 252 242 228 222 219 228 246 244 240 241 255 273 276 278 259 264 283 293 301 293 293 295 281 278 276
28 151 195 282 308 302 243 246 238 256 270 283 293 287 285 282 266 255 256 246 237 228 224 228 237 239 246 245 250 257 264 266 270 269 275 285 290 294 297 288 283 278 280
Height
1501 1502 1503 1504 1505 1506 1507 1507 1508 1509 1510 1511 1512 1513 1513 1514 1515 1515 1516 1517 1517 1518 1518 1519 1519 1520 1520 1521 1521 1522 1522 1523 1523 1523 1524 1524 1525 1526 1526 1526 1527 1527 1528
1500 1501 1502 1503 1504 1505 1506 1507 1508 1509 1510 1511 1512 1513 1513 1514 1515 1515 1516 1516 1517 1518 1518 1519 1519 1520 1520 1521 1521 1521 1522 1523 1523 1524 1524 1524 1525 1526 1526 1526 1527 1527 1527
1500 1501 1502 1503 1504 1505 1506 1507 1508 1509 1510 1511 1512 1513 1513 1514 1515 1515 1516 1516 1517 1518 1518 1519 1519 1520 1520 1521 1521 1521 1522 1523 1523 1524 1524 1525 1525 1526 1526 1526 1527 1527 1527
1500 1501 1501 1503 1504 1505 1506 1507 1508 1508 1509 1510 1511 1512 1513 1513 1514 1515 1515 1516 1516 1517 1518 1518 1519 1519 1520 1520 1521 1521 1522 1522 1523 1523 1524 1524 1525 1525 1526 1526 1526 1527 1527
1500 1500 1501 1502 1503 1504 1505 1506 1507 1508 1509 1510 1511 1511 1512 1513 1513 1514 1515 1515 1516 1516 1517 1517 1518 1518 1519 1519 1520 1521 1521 1522 1522 1523 1523 1524 1524 1525 1525 1525 1526 1526 1526
1499 1500 1501 1502 1503 1504 1505 1505 1506 1507 1508 1509 1510 1511 1511 1512 1513 1513 1514 1514 1515 1516 1516 1517 1517 1518 1518 1519 1519 1520 1521 1521 1522 1522 1523 1523 1523 1524 1524 1524 1525 1525 1525
1499 1499 1500 1501 1502 1503 1504 1505 1505 1506 1507 1508 1509 1510 1510 1511 1512 1512 1513 1513 1514 1515 1515 1516 1516 1517 1517 1518 1518 1519 1520 1520 1521 1521 1522 1522 1522 1523 1523 1523 1524 1524 1524
1498 1499 1499 1500 1501 1502 1503 1504 1504 1505 1506 1507 1508 1508 1509 1510 1510 1511 1512 1512 1513 1513 1514 1514 1515 1516 1516 1517 1517 1518 1518 1519 1519 1519 1520 1521 1521 1522 1522 1522 1522 1522 1523
1497 1498 1498 1499 1500 1501 1502 1502 1503 1504 1505 1506 1507 1507 1508 1508 1509 1510 1510 1511 1511 1512 1512 1513 1514 1514 1515 1515 1516 1516 1517 1517 1518 1518 1518 1519 1520 1520 1520 1520 1521 1521 1521
1496 1497 1497 1498 1499 1499 1500 1501 1502 1503 1504 1504 1505 1506 1506 1506 1507 1508 1508 1509 1510 1510 1511 1511 1512 1512 1513 1514 1514 1515 1515 1515 1516 1516 1516 1517 1518 1518 1518 1519 1519 1519 1519
1495 1496 1496 1497 1497 1498 1499 1499 1500 1501 1502 1503 1503 1504 1504 1505 1505 1506 1506 1507 1508 1508 1509 1509 1510 1510 1511 1512 1512 1513 1513 1513 1513 1514 1514 1515 1515 1516 1516 1516 1516 1516 1516
1493 1494 1494 1495 1496 1497 1497 1498 1498 1499 1500 1501 1501 1502 1502 1503 1503 1503 1504 1505 1505 1506 1506 1507 1507 1508 1509 1509 1510 1510 1510 1511 1511 1511 1512 1512 1513 1513 1514 1514 1514 1514 1514
1491 1492 1492 1493 1494 1495 1495 1496 1496 1497 1498 1499 1499 1499 1500 1500 1501 1501 1502 1502 1503 1503 1504 1504 1505 1505 1506 1506 1507 1507 1508 1508 1508 1509 1509 1510 1510 1511 1511 1511 1511 1511 1511
1490 1490 1490 1491 1492 1493 1493 1494 1494 1495 1495 1496 1496 1497 1498 1498 1498 1499 1499 1499 1500 1500 1501 1501 1502 1502 1503 1504 1504 1504 1505 1505 1505 1505 1506 1507 1507 1508 1508 1508 1508 1508 1508
1487 1488 1488 1489 1490 1490 1491 1491 1492 1493 1493 1494 1494 1495 1495 1496 1496 1496 1496 1497 1497 1498 1498 1498 1499 1499 1500 1500 1501 1501 1502 1502 1502 1502 1502 1503 1503 1504 1504 1504 1504 1504 1505
1485 1485 1486 1487 1487 1488 1488 1489 1489 1490 1491 1491 1491 1492 1492 1493 1493 1493 1494 1494 1494 1495 1495 1496 1496 1496 1497 1497 1497 1498 1498 1498 1499 1499 1499 1499 1500 1500 1500 1500 1500 1501 1501
1482 1483 1483 1484 1485 1485 1485 1486 1487 1487 1488 1488 1488 1489 1489 1490 1490 1491 1491 1491 1491 1492 1492 1492 1493 1493 1493 1493 1494 1494 1495 1495 1495 1495 1495 1495 1495 1496 1496 1496 1496 1496 1496
1480 1480 1480 1481 1482 1482 1482 1483 1483 1484 1484 1485 1485 1486 1486 1487 1487 1487 1487 1488 1488 1489 1489 1489 1489 1489 1490 1489 1490 1490 1490 1491 1491 1491 1491 1491 1491 1491 1491 1491 1492 1491 1492
1477 1477 1477 1478 1478 1479 1480 1480 1481 1481 1481 1482 1482 1483 1483 1483 1483 1484 1484 1485 1485 1485 1485 1486 1486 1485 1485 1485 1486 1486 1486 1486 1486 1486 1486 1486 1486 1487 1487 1487 1487 1486 1486
1474 1474 1475 1475 1475 1476 1477 1477 1478 1478 1478 1478 1479 1479 1479 1479 1480 1480 1481 1481 1481 1482 1482 1482 1482 1482 1482 1482 1482 1481 1481 1481 1481 1481 1482 1482 1482 1482 1482 1482 1482 1482 1481
1472 1471 1472 1472 1472 1473 1473 1474 1474 1474 1474 1475 1475 1475 1476 1476 1476 1477 1477 1478 1478 1478 1478 1479 1479 1479 1479 1478 1478 1476 1476 1477 1476 1477 1477 1477 1478 1478 1478 1477 1477 1477 1476
1469 1469 1469 1469 1470 1470 1470 1471 1472 1472 1472 1472 1472 1472 1473 1473 1473 1473 1473 1474 1474 1474 1475 1475 1475 1475 1475 1475 1475 1473 1472 1472 1472 1473 1473 1473 1473 1473 1473 1472 1472 1472 1471
1466 1466 1466 1467 1467 1467 1467 1468 1468 1468 1468 1468 1469 1469 1469 1469 1469 1470 1470 1470 1470 1470 1471 1471 1471 1471 1471 1472 1473 1473 1472 1469 1468 1468 1468 1468 1469 1468 1468 1468 1467 1467 1466
1463 1463 1464 1464 1464 1463 1464 1464 1464 1464 1464 1465 1465 1465 1465 1466 1466 1466 1466 1466 1466 1466 1467 1467 1467 1468 1468 1468 1468 1469 1470 1468 1468 1463 1463 1464 1464 1464 1463 1463 1462 1461 1461
1460 1461 1461 1461 1461 1460 1460 1461 1461 1461 1461 1462 1462 1462 1462 1462 1462 1462 1462 1462 1462 1462 1463 1463 1463 1464 1464 1464 1464 1465 1465 1465 1464 1463 1459 1458 1459 1459 1458 1457 1457 1456 1456
1458 1458 1458 1458 1458 1457 1457 1457 1458 1458 1458 1458 1458 1458 1458 1458 1458 1459 1458 1458 1458 1458 1459 1459 1459 1459 1459 1460 1460 1460 1461 1461 1460 1459 1457 1454 1453 1453 1453 1452 1452 1451 1450